#timestamp,LO_Frequency,Hit,Temp,Hum 
1480039215.5,286047116.3,N,0.0,0.0
1480039235.3,286047116.3,N,0.0,0.0
1480039255.2,286047116.3,N,0.0,0.0
1480039275.9,286047116.1,N,0.0,0.0
1480039295.7,286047115.4,N,0.0,0.0
1480039315.6,286047115.2,N,0.0,0.0
1480039335.4,286047115.3,N,0.0,0.0
1480039355.2,286047115.2,N,0.0,0.0
1480039375.1,286047115.8,N,0.0,0.0
1480039376.0,286047115.8,N,0.0,0.0
1480039395.8,286047115.7,N,0.0,0.0
1480039415.7,286047115.7,N,0.0,0.0
1480039435.5,286047115.8,N,0.0,0.0
1480039455.3,286047115.7,N,0.0,0.0
1480039475.2,286047115.9,N,0.0,0.0
1480039495.0,286047115.9,N,0.0,0.0
1480039495.9,286047115.9,N,0.0,0.0
1480039515.8,286047116.1,N,0.0,0.0
1480039535.6,286047115.2,N,0.0,0.0
1480039555.4,286047115.5,N,0.0,0.0
1480039575.3,286047115.2,N,0.0,0.0
1480039595.1,286047115.4,N,0.0,0.0
1480039615.8,286047115.2,N,0.0,0.0
1480039635.7,286047115.7,N,0.0,0.0
1480039655.5,286047115.7,N,0.0,0.0
1480039675.4,286047115.1,N,0.0,0.0
1480039695.2,286047115.1,N,0.0,0.0
1480039715.0,286047115.3,N,0.0,0.0
1480039715.9,286047115.3,N,0.0,0.0
1480039735.8,286047115.4,N,0.0,0.0
1480039755.6,286047115.1,N,0.0,0.0
1480039775.5,286047115.2,N,0.0,0.0
1480039795.3,286047115.0,N,0.0,0.0
1480039815.1,286047117.5,N,0.0,0.0
1480039835.9,286047117.3,N,0.0,0.0
1480039855.7,286047116.8,N,0.0,0.0
1480039875.5,286047117.3,N,0.0,0.0
1480039895.4,286047115.3,N,0.0,0.0
1480039915.2,286047114.5,N,0.0,0.0
1480039935.1,286047114.4,N,0.0,0.0
1480039936.0,286047114.4,N,0.0,0.0
1480039955.8,286047113.5,N,0.0,0.0
1480039975.6,286047113.3,N,0.0,0.0
1480039995.5,286047113.3,N,0.0,0.0
1480040015.3,286047116.4,N,0.0,0.0
1480040035.1,286047115.7,N,0.0,0.0
1480040055.9,286047115.5,N,0.0,0.0
1480040075.7,286047115.0,N,0.0,0.0
1480040095.6,286047117.3,N,0.0,0.0
1480040115.4,286047116.6,N,0.0,0.0
1480040135.2,286047116.7,N,0.0,0.0
1480040155.1,286047116.8,N,0.0,0.0
1480040156.0,286047116.8,N,0.0,0.0
1480040175.8,286047119.3,N,0.0,0.0
1480040195.7,286047118.7,N,0.0,0.0
1480040215.5,286047118.9,N,0.0,0.0
1480040235.3,286047119.5,N,0.0,0.0
1480040255.2,286047119.1,N,0.0,0.0
1480040275.0,286047118.8,N,0.0,0.0
1480040275.9,286047118.8,N,0.0,0.0
1480040295.8,286047118.9,N,0.0,0.0
1480040315.6,286047119.2,N,0.0,0.0
1480040335.4,286047119.5,N,0.0,0.0
1480040355.3,286047116.7,N,0.0,0.0
1480040375.1,286047116.6,N,0.0,0.0
1480040395.8,286047116.6,N,0.0,0.0
1480040415.7,286047116.9,N,0.0,0.0
1480040435.5,286047116.5,N,0.0,0.0
1480040455.4,286047116.5,N,0.0,0.0
1480040475.2,286047119.4,N,0.0,0.0
1480040495.0,286047119.4,N,0.0,0.0
1480040495.9,286047119.4,N,0.0,0.0
1480040515.8,286047119.5,N,0.0,0.0
1480040535.6,286047119.2,N,0.0,0.0
1480040555.4,286047118.7,N,0.0,0.0
1480040575.3,286047116.6,N,0.0,0.0
1480040595.1,286047118.3,N,0.0,0.0
1480040615.9,286047118.6,N,0.0,0.0
1480040635.7,286047118.1,N,0.0,0.0
1480040655.5,286047121.2,N,0.0,0.0
1480040675.4,286047118.3,N,0.0,0.0
1480040695.2,286047118.4,N,0.0,0.0
1480040715.1,286047118.7,N,0.0,0.0
1480040716.0,286047118.7,N,0.0,0.0
1480040735.8,286047118.2,N,0.0,0.0
1480040755.6,286047118.1,N,0.0,0.0
1480040775.5,286047119.0,N,0.0,0.0
1480040795.3,286047118.4,N,0.0,0.0
1480040815.2,286047120.7,N,0.0,0.0
1480040835.9,286047120.9,N,0.0,0.0
1480040855.7,286047120.0,N,0.0,0.0
1480040875.6,286047120.4,N,0.0,0.0
1480040895.4,286047120.3,N,0.0,0.0
1480040915.2,286047121.0,N,0.0,0.0
1480040935.1,286047120.8,N,0.0,0.0
1480040936.0,286047120.8,N,0.0,0.0
1480040955.8,286047120.3,N,0.0,0.0
1480040975.7,286047120.2,N,0.0,0.0
1480040995.5,286047120.3,N,0.0,0.0
1480041015.3,286047118.4,N,0.0,0.0
1480041035.2,286047117.8,N,0.0,0.0
1480041055.0,286047115.3,N,0.0,0.0
1480041055.9,286047115.3,N,0.0,0.0
1480041075.8,286047116.0,N,0.0,0.0
1480041095.6,286047113.3,N,0.0,0.0
1480041115.4,286047115.4,N,0.0,0.0
1480041135.3,286047115.5,N,0.0,0.0
1480041155.1,286047116.3,N,0.0,0.0
1480041175.8,286047114.1,N,0.0,0.0
1480041195.7,286047115.8,N,0.0,0.0
1480041215.5,286047115.9,N,0.0,0.0
1480041235.4,286047113.4,N,0.0,0.0
1480041255.2,286047113.4,N,0.0,0.0
1480041275.0,286047113.6,N,0.0,0.0
1480041275.9,286047113.6,N,0.0,0.0
1480041295.8,286047114.6,N,0.0,0.0
1480041315.6,286047114.5,N,0.0,0.0
1480041335.5,286047113.8,N,0.0,0.0
1480041355.3,286047113.3,N,0.0,0.0
1480041375.1,286047113.3,N,0.0,0.0
1480041395.9,286047113.6,N,0.0,0.0
1480041415.7,286047115.5,N,0.0,0.0
1480041435.6,286047117.3,N,0.0,0.0
1480041455.4,286047119.1,N,0.0,0.0
1480041475.2,286047118.6,N,0.0,0.0
1480041495.1,286047120.9,N,0.0,0.0
1480041496.0,286047120.9,N,0.0,0.0
1480041515.8,286047122.7,N,0.0,0.0
1480041535.6,286047121.6,N,0.0,0.0
1480041555.5,286047121.3,N,0.0,0.0
1480041575.3,286047124.1,N,0.0,0.0
1480041595.2,286047123.0,N,0.0,0.0
1480041615.9,286047123.0,N,0.0,0.0
1480041635.7,286047123.3,N,0.0,0.0
1480041655.6,286047123.4,N,0.0,0.0
1480041675.4,286047123.5,N,0.0,0.0
1480041695.3,286047123.1,N,0.0,0.0
1480041715.1,286047125.7,N,0.0,0.0
1480041716.0,286047125.7,N,0.0,0.0
1480041735.8,286047125.5,N,0.0,0.0
1480041755.7,286047125.5,N,0.0,0.0
1480041775.5,286047126.0,N,0.0,0.0
1480041795.4,286047122.9,N,0.0,0.0
1480041815.2,286047122.9,N,0.0,0.0
1480041835.0,286047123.5,N,0.0,0.0
1480041835.9,286047123.5,N,0.0,0.0
1480041855.8,286047123.1,N,0.0,0.0
1480041875.6,286047121.4,N,0.0,0.0
1480041895.4,286047124.0,N,0.0,0.0
1480041915.3,286047122.8,N,0.0,0.0
1480041935.1,286047119.7,N,0.0,0.0
1480041955.9,286047120.2,N,0.0,0.0
1480041975.7,286047121.2,N,0.0,0.0
1480041995.5,286047118.5,N,0.0,0.0
1480042015.4,286047118.4,N,0.0,0.0
1480042035.2,286047119.6,N,0.0,0.0
1480042055.0,286047114.9,N,0.0,0.0
1480042056.0,286047114.9,N,0.0,0.0
1480042075.8,286047115.1,N,0.0,0.0
1480042095.6,286047115.4,N,0.0,0.0
1480042115.5,286047117.3,N,0.0,0.0
1480042135.3,286047117.6,N,0.0,0.0
1480042155.1,286047119.6,N,0.0,0.0
1480042175.9,286047120.6,N,0.0,0.0
1480042195.7,286047121.0,N,0.0,0.0
1480042215.6,286047120.4,N,0.0,0.0
1480042235.4,286047118.3,N,0.0,0.0
1480042255.2,286047120.7,N,0.0,0.0
1480042275.1,286047119.9,N,0.0,0.0
1480042276.0,286047119.9,N,0.0,0.0
1480042295.8,286047122.2,N,0.0,0.0
1480042315.6,286047121.4,N,0.0,0.0
1480042335.5,286047121.7,N,0.0,0.0
1480042355.3,286047119.9,N,0.0,0.0
1480042375.2,286047120.4,N,0.0,0.0
1480042395.9,286047120.1,N,0.0,0.0
1480042415.7,286047120.1,N,0.0,0.0
1480042435.6,286047122.1,N,0.0,0.0
1480042455.4,286047124.3,N,0.0,0.0
1480042475.3,286047124.0,N,0.0,0.0
1480042495.1,286047124.3,N,0.0,0.0
1480042496.0,286047124.3,N,0.0,0.0
1480042515.8,286047123.3,N,0.0,0.0
1480042535.7,286047122.9,N,0.0,0.0
1480042555.5,286047124.6,N,0.0,0.0
1480042575.4,286047126.7,N,0.0,0.0
1480042595.2,286047126.5,N,0.0,0.0
1480042615.0,286047126.4,N,0.0,0.0
1480042615.9,286047126.4,N,0.0,0.0
1480042635.8,286047127.1,N,0.0,0.0
1480042655.6,286047126.2,N,0.0,0.0
1480042675.4,286047126.2,N,0.0,0.0
1480042695.3,286047129.2,N,0.0,0.0
1480042715.1,286047128.8,N,0.0,0.0
1480042735.9,286047129.2,N,0.0,0.0
1480042755.7,286047128.6,N,0.0,0.0
1480042775.5,286047128.4,N,0.0,0.0
1480042795.4,286047129.0,N,0.0,0.0
